Jasper, TX

7:05 PM CDT on October 22, 2017 (GMT -0500)
Jasper County-Bell

Weather History for KJAS - November, 2012

Change the Weather History Date:

Sunday, November 4, 2012

  Actual Average (KPOE) Record (KPOE)
Temperature  
Mean Temperature 72 °F -  
Max Temperature 82 °F 70 °F 86 °F (2016)
Min Temperature 61 °F 49 °F 37 °F (1997)
Cooling Degree Days 6    
Growing Degree Days 22 (Base 50)    
Moisture  
Dew Point 60 °F    
Average Humidity 76    
Maximum Humidity 94    
Minimum Humidity 42    
Precipitation  
Precipitation 0.00 in - - ()
Sea Level Pressure  
Sea Level Pressure 30.09 in    
Wind  
Wind Speed 1 mph (NNE)    
Max Wind Speed 7 mph    
Max Gust Speed -    
Visibility 10 miles    
Events      
Averages and records for this station are not official NWS values.
T = Trace of Precipitation, MM = Missing Value Source: NWS Daily Summary

Daily Weather History Graph

Daily Weather History Graph

Search for Another Location

Airport or City:

Trip Planner

Search our weather history database for the weather conditions in past years. The results will help you decide how hot, cold, wet, or windy it might be!

Date:

Astronomy

Nov. 04, 2012 Rise Set
Actual Time 6:33 AM CST 5:25 PM CST
Civil Twilight 6:08 AM CST 5:50 PM CST
Nautical Twilight 5:40 AM CST 6:18 PM CST
Astronomical Twilight 5:11 AM CST 6:47 PM CST
Moon 10:06 PM CST (11/4) 11:13 AM CST (11/4)
Length of Visible Light 11h 41m
Length of Day
10h 51m
Waning Gibbous, 72% of the Moon is Illuminated
Nov 4
Waning Gibbous
Nov 6
Last Quarter
Nov 13
New
Nov 20
First Quarter
Nov 28
Full

Hourly Weather History & Observations

Time (CST) Temp. Heat Index Dew Point Humidity Pressure Visibility Wind Dir Wind Speed Gust Speed Precip Events Conditions
12:15 AM 65.7 °F - 60.8 °F 84% 30.08 in 10.0 mi Calm Calm - N/A   Clear
12:35 AM 64.8 °F - 60.8 °F 87% 30.09 in 10.0 mi Calm Calm - N/A   Clear
12:55 AM 63.7 °F - 59.9 °F 87% 30.09 in 10.0 mi Calm Calm - N/A   Clear
1:15 AM 62.8 °F - 60.4 °F 92% 30.09 in 10.0 mi Calm Calm - N/A   Clear
1:35 AM 63.1 °F - 60.6 °F 91% 30.09 in 10.0 mi Calm Calm - N/A   Scattered Clouds
1:55 AM 63.3 °F - 60.8 °F 91% 30.09 in 10.0 mi Calm Calm - N/A   Mostly Cloudy
1:15 AM 63.5 °F - 60.8 °F 91% 30.08 in 10.0 mi Calm Calm - N/A   Mostly Cloudy
1:35 AM 63.5 °F - 61.0 °F 91% 30.09 in 10.0 mi Calm Calm - N/A   Overcast
1:55 AM 63.5 °F - 60.8 °F 91% 30.08 in 10.0 mi Calm Calm - N/A   Scattered Clouds
2:15 AM 63.0 °F - 60.8 °F 93% 30.08 in 10.0 mi Calm Calm - N/A   Mostly Cloudy
2:35 AM 62.4 °F - 60.4 °F 93% 30.07 in 10.0 mi Calm Calm - N/A   Overcast
2:55 AM 62.2 °F - 60.4 °F 94% 30.08 in 10.0 mi Calm Calm - N/A   Overcast
3:15 AM 61.9 °F - 60.3 °F 94% 30.08 in 10.0 mi Calm Calm - N/A   Overcast
3:35 AM 62.2 °F - 60.6 °F 94% 30.08 in 10.0 mi Calm Calm - N/A   Overcast
3:55 AM 62.8 °F - 60.8 °F 93% 30.08 in 10.0 mi Calm Calm - N/A   Overcast
4:15 AM 63.1 °F - 61.0 °F 93% 30.09 in 10.0 mi Calm Calm - N/A   Overcast
4:35 AM 63.0 °F - 60.8 °F 93% 30.09 in 10.0 mi Calm Calm - N/A   Overcast
4:55 AM 63.1 °F - 60.8 °F 92% 30.09 in 10.0 mi Calm Calm - N/A   Overcast
5:15 AM 62.8 °F - 60.8 °F 93% 30.09 in 10.0 mi Calm Calm - N/A   Mostly Cloudy
5:35 AM 62.6 °F - 60.6 °F 93% 30.10 in 10.0 mi Calm Calm - N/A   Scattered Clouds
6:15 AM 62.6 °F - 60.4 °F 93% 30.10 in 10.0 mi Calm Calm - N/A   Mostly Cloudy
6:35 AM 62.8 °F - 60.4 °F 92% 30.11 in 10.0 mi Calm Calm - N/A   Mostly Cloudy
6:55 AM 63.5 °F - 61.5 °F 93% 30.11 in 10.0 mi Calm Calm - N/A   Light Drizzle
7:15 AM 63.9 °F - 62.2 °F 94% 30.12 in 10.0 mi Calm Calm - N/A   Overcast
7:35 AM 64.2 °F - 62.4 °F 94% 30.12 in 10.0 mi Calm Calm - N/A   Mostly Cloudy
7:55 AM 64.4 °F - 62.8 °F 94% 30.12 in 10.0 mi Calm Calm - N/A   Overcast
8:15 AM 65.8 °F - 63.1 °F 91% 30.12 in 10.0 mi North 3.5 mph - N/A   Mostly Cloudy
8:35 AM 67.5 °F - 62.4 °F 84% 30.13 in 10.0 mi Calm Calm - N/A   Overcast
8:55 AM 69.1 °F - 61.3 °F 76% 30.13 in 10.0 mi Calm Calm - N/A   Overcast
9:15 AM 70.0 °F - 62.2 °F 76% 30.14 in 10.0 mi Calm Calm - N/A   Overcast
9:35 AM 70.2 °F - 62.2 °F 76% 30.14 in 10.0 mi Calm Calm - N/A   Overcast
9:55 AM 70.9 °F - 61.9 °F 73% 30.14 in 10.0 mi Calm Calm - N/A   Overcast
10:15 AM 71.6 °F - 61.5 °F 70% 30.15 in 10.0 mi Calm Calm - N/A   Overcast
10:35 AM 72.7 °F - 60.4 °F 65% 30.14 in 10.0 mi Calm Calm - N/A   Scattered Clouds
10:55 AM 74.8 °F - 60.4 °F 61% 30.13 in 10.0 mi Calm Calm - N/A   Clear
11:15 AM 77.0 °F - 59.9 °F 55% 30.12 in 10.0 mi NNE 4.6 mph - N/A   Clear
11:35 AM 78.6 °F - 59.7 °F 52% 30.11 in 10.0 mi NE 5.8 mph - N/A   Clear
11:55 AM 78.8 °F - 59.9 °F 52% 30.10 in 10.0 mi Calm Calm - N/A   Clear
12:15 PM 79.5 °F - 59.7 °F 51% 30.09 in 10.0 mi NE 3.5 mph - N/A   Clear
12:35 PM 80.4 °F 81.0 °F 59.2 °F 48% 30.08 in 10.0 mi Calm Calm - N/A   Clear
12:55 PM 81.1 °F 81.2 °F 57.6 °F 44% 30.07 in 10.0 mi NNW 5.8 mph - N/A   Clear
1:15 PM 81.7 °F 81.5 °F 57.2 °F 43% 30.06 in 10.0 mi North 4.6 mph - N/A   Scattered Clouds
1:35 PM 81.7 °F 81.5 °F 57.2 °F 43% 30.06 in 10.0 mi Calm Calm - N/A   Clear
1:55 PM 82.4 °F 82.0 °F 57.2 °F 42% 30.05 in 10.0 mi North 5.8 mph - N/A   Scattered Clouds
2:15 PM 81.7 °F 81.5 °F 57.4 °F 43% 30.05 in 10.0 mi NE 4.6 mph - N/A   Scattered Clouds
2:35 PM 80.6 °F 80.8 °F 57.6 °F 45% 30.05 in 10.0 mi Calm Calm - N/A   Scattered Clouds
2:55 PM 80.4 °F 80.7 °F 57.6 °F 45% 30.05 in 10.0 mi North 6.9 mph - N/A   Clear
3:15 PM 81.5 °F 81.5 °F 57.9 °F 44% 30.04 in 10.0 mi North 3.5 mph - N/A   Clear
3:35 PM 81.0 °F 81.0 °F 57.4 °F 44% 30.04 in 10.0 mi NW 3.5 mph - N/A   Clear
3:55 PM 81.3 °F 81.3 °F 57.4 °F 44% 30.03 in 10.0 mi Calm Calm - N/A   Clear
4:15 PM 81.3 °F 81.3 °F 57.4 °F 44% 30.03 in 10.0 mi Calm Calm - N/A   Clear
4:35 PM 80.6 °F 80.8 °F 57.2 °F 45% 30.03 in 10.0 mi Calm Calm - N/A   Clear
4:55 PM 79.7 °F - 57.7 °F 47% 30.04 in 10.0 mi Calm Calm - N/A   Clear
5:15 PM 77.4 °F - 59.5 °F 54% 30.05 in 10.0 mi NNW 4.6 mph - N/A   Clear
5:35 PM 73.8 °F - 60.6 °F 63% 30.06 in 10.0 mi Calm Calm - N/A   Clear
5:55 PM 71.4 °F - 61.2 °F 70% 30.06 in 10.0 mi Calm Calm - N/A   Clear
6:15 PM 68.9 °F - 61.2 °F 76% 30.07 in 10.0 mi Calm Calm - N/A   Clear
6:35 PM 67.1 °F - 61.3 °F 82% 30.07 in 10.0 mi Calm Calm - N/A   Clear
6:55 PM 66.6 °F - 61.3 °F 83% 30.08 in 10.0 mi Calm Calm - N/A   Clear
7:15 PM 66.2 °F - 61.3 °F 84% 30.08 in 10.0 mi Calm Calm - N/A   Clear
7:35 PM 65.1 °F - 61.2 °F 87% 30.08 in 10.0 mi Calm Calm - N/A   Clear
7:55 PM 64.6 °F - 60.8 °F 88% 30.09 in 5.0 mi ENE 3.5 mph - N/A   Clear
8:15 PM 66.2 °F - 61.0 °F 83% 30.09 in 7.0 mi ENE 3.5 mph - N/A   Clear
8:35 PM 65.7 °F - 60.6 °F 84% 30.09 in 5.0 mi Calm Calm - N/A   Clear
8:55 PM 63.9 °F - 60.4 °F 89% 30.10 in 4.0 mi Calm Calm - N/A   Clear
9:15 PM 63.3 °F - 60.4 °F 90% 30.10 in 2.5 mi Calm Calm - N/A   Scattered Clouds
9:35 PM 64.0 °F - 60.8 °F 89% 30.11 in 10.0 mi NE 3.5 mph - N/A   Mostly Cloudy
9:55 PM 66.0 °F - 61.9 °F 86% 30.11 in 10.0 mi ENE 4.6 mph - N/A   Mostly Cloudy
10:15 PM 65.5 °F - 61.7 °F 88% 30.11 in 10.0 mi NE 4.6 mph - N/A   Scattered Clouds
10:35 PM 64.6 °F - 61.5 °F 90% 30.11 in 10.0 mi ENE 5.8 mph - N/A   Clear
10:55 PM 63.9 °F - 61.0 °F 90% 30.11 in 10.0 mi Calm Calm - N/A   Clear